This is the latest recevied weather packets stored in our database for station/object KC1TEM-13. If no packets are shown the sender has not sent any weather packets the latest 10 day(s).
| Time | Temp. | Humidity | Pressure | Rain* | Wind** | Luminosity | Snow |
|---|---|---|---|---|---|---|---|
| 1778008356 | 27.78° C | 33% | 1005.6 hPa | 0 mm | - | 683 W/m² | - |
| 1778008052 | 28.33° C | 33% | 1005.8 hPa | 0 mm | - | 195 W/m² | - |
| 1778007752 | 28.33° C | 32% | 1005.7 hPa | 0 mm | - | 257 W/m² | - |
| 1778007448 | 28.89° C | 30% | 1005.5 hPa | 0 mm | - | 743 W/m² | - |
| 1778007145 | 28.89° C | 29% | 1005.9 hPa | 0 mm | - | 735 W/m² | - |
| 1778006841 | 28.89° C | 29% | 1005.9 hPa | 0 mm | - | 748 W/m² | - |
| 1778006538 | 28.89° C | 29% | 1006 hPa | 0 mm | - | 223 W/m² | - |
| 1778006235 | 28.89° C | 30% | 1005.9 hPa | 0 mm | - | 716 W/m² | - |
| 1778005933 | 28.89° C | 33% | 1006 hPa | 0 mm | - | 778 W/m² | - |
| 1778005628 | 28.33° C | 32% | 1006.2 hPa | 0 mm | - | 800 W/m² | - |
| 1778005326 | 28.89° C | 32% | 1006.2 hPa | 0 mm | - | 779 W/m² | - |
| 1778005022 | 28.89° C | 32% | 1006 hPa | 0 mm | - | 796 W/m² | - |
| 1778004720 | 28.89° C | 32% | 1006.1 hPa | 0 mm | - | 762 W/m² | - |
| 1778004416 | 27.78° C | 33% | 1006.4 hPa | 0 mm | - | 752 W/m² | - |
| 1778004113 | 28.89° C | 33% | 1006.6 hPa | 0 mm | - | 779 W/m² | - |
| 1778003809 | 28.33° C | 33% | 1006.6 hPa | 0 mm | - | 758 W/m² | - |
| 1778003505 | 28.33° C | 32% | 1006.8 hPa | 0 mm | - | 796 W/m² | - |
| 1778003202 | 28.33° C | 33% | 1007 hPa | 0 mm | - | 762 W/m² | - |
| 1778002898 | 27.78° C | 33% | 1006.9 hPa | 0 mm | - | 787 W/m² | - |
| 1778002595 | 27.78° C | 33% | 1007 hPa | 0 mm | - | 818 W/m² | - |
| 1778002292 | 27.78° C | 33% | 1007 hPa | 0 mm | - | 811 W/m² | - |
| 1778001990 | 27.78° C | 33% | 1007.1 hPa | 0 mm | - | 846 W/m² | - |
| 1778001686 | 27.78° C | 34% | 1007.1 hPa | 0 mm | - | 841 W/m² | - |
| 1778001381 | 27.22° C | 34% | 1007.4 hPa | 0 mm | - | 846 W/m² | - |
| 1778001078 | 27.22° C | 35% | 1007.4 hPa | 0 mm | - | 872 W/m² | - |
* Rain latest hour (hover to see other rain measurements)
** Current wind speed in m/s (hover to see current wind gust speed)